Location: Zagreb
(45.8000°N, 16.0000°E)
Time: 20:56:00
(UTC+01:00)

DX 1 - Pass Details

Date: 30 October 2020
Orbit: 619 x 630 km, 98.5° (Epoch: 01 December)

Event Time Altitude Azimuth Distance (km) Brightness Sun altitude
Rises 19:17:17 0° 4° (N) 2,910 ? -27.0°
Reaches altitude 10° 19:19:40 10° 354° (N) 2,000 ? -27.4°
Maximum altitude 19:23:27 30° 293° (WNW) 1,124 ? -28.1°
Drops below altitude 10° 19:27:13 10° 233° (SW) 1,992 ? -28.7°
Sets 19:29:36 0° 222° (SW) 2,896 ? -29.1°
